Location: Arborea
(39.7744°N, 8.5819°E)
Time: 04:15:31
(UTC+00:00)

H-2A R/B - Pass Details

Date: 24 October 2021
Orbit: 577 x 654 km, 98.5° (Epoch: 29 November)

Event Time Altitude Azimuth Distance (km) Brightness Sun altitude
Exits shadow 18:51:00 31° 341° (NNW) 1,049 3.4 -27.0°
Maximum altitude 18:52:35 47° 288° (WNW) 787 2.9 -27.3°
Drops below altitude 10° 18:56:37 10° 214° (SW) 1,938 4.9 -28.1°
Sets 18:58:50 0° 208° (SSW) 2,850 5.7 -28.5°
